This is the latest recevied weather packets stored in our database for station/object SQ9PDE-13. If no packets are shown the sender has not sent any weather packets the latest 1 day(s).
| Time | Temp. | Humidity | Pressure | Rain* | Wind** | Luminosity | Snow |
|---|---|---|---|---|---|---|---|
| 1778077071 | 23.89° C | 40% | 1004.5 hPa | - | - | - | - |
| 1778076470 | 23.89° C | 41% | 1004.5 hPa | - | - | - | - |
| 1778075568 | 24.44° C | 43% | 1004.4 hPa | - | - | - | - |
| 1778074366 | 24.44° C | 44% | 1004.6 hPa | - | - | - | - |
| 1778073765 | 25° C | 45% | 1004.4 hPa | - | - | - | - |
| 1778073164 | 25° C | 46% | 1004.5 hPa | - | - | - | - |
| 1778071962 | 23.89° C | 44% | 1004.8 hPa | - | - | - | - |
| 1778071361 | 23.33° C | 44% | 1004.9 hPa | - | - | - | - |
| 1778070760 | 23.89° C | 45% | 1004.9 hPa | - | - | - | - |
| 1778070159 | 23.89° C | 45% | 1004.9 hPa | - | - | - | - |
| 1778069933 | 23.89° C | 44% | 1004.9 hPa | - | - | - | - |
| 1778069257 | 24.44° C | 43% | 1004.8 hPa | - | - | - | - |
| 1778068356 | 23.89° C | 45% | 1004.8 hPa | - | - | - | - |
| 1778068055 | 24.44° C | 45% | 1004.7 hPa | - | - | - | - |
| 1778067454 | 23.33° C | 47% | 1004.9 hPa | - | - | - | - |
| 1778066853 | 24.44° C | 45% | 1004.8 hPa | - | - | - | - |
| 1778066633 | 23.89° C | 47% | 1005 hPa | - | - | - | - |
| 1778066252 | 23.89° C | 47% | 1005 hPa | - | - | - | - |
| 1778065651 | 23.89° C | 48% | 1005 hPa | - | - | - | - |
| 1778065050 | 23.33° C | 49% | 1005.3 hPa | - | - | - | - |
| 1778064449 | 23.89° C | 51% | 1005.3 hPa | - | - | - | - |
| 1778063848 | 22.78° C | 50% | 1005.4 hPa | - | - | - | - |
| 1778063547 | 22.78° C | 50% | 1005.4 hPa | - | - | - | - |
| 1778063247 | 22.22° C | 51% | 1005.5 hPa | - | - | - | - |
| 1778062646 | 22.78° C | 49% | 1005.4 hPa | - | - | - | - |
* Rain since midnight (hover to see other rain measurements)
** Current wind speed in m/s (hover to see current wind gust speed)